CDT,Max TemperatureF,Mean TemperatureF,Min TemperatureF,Max Dew PointF,MeanDew PointF,Min DewpointF,Max Humidity, Mean Humidity, Min Humidity, Max Sea Level PressureIn, Mean Sea Level PressureIn, Min Sea Level PressureIn, Max VisibilityMiles, Mean VisibilityMiles, Min VisibilityMiles, Max Wind SpeedMPH, Mean Wind SpeedMPH, Max Gust SpeedMPH,PrecipitationIn, CloudCover, Events, WindDirDegrees
2012-6-1,66,50,36,41,36,30,93,57,31,30.00,29.86,29.71,10,10,10,14,5,21,0.00,3,,27
2012-6-2,69,58,48,44,40,32,77,52,36,29.68,29.61,29.57,10,10,10,23,7,39,0.00,6,,312
2012-6-3,80,63,48,50,45,41,83,52,28,29.86,29.74,29.65,10,10,10,16,7,25,0.00,1,Rain,339
2012-6-4,75,64,54,53,50,46,93,64,38,30.00,29.93,29.86,10,10,10,9,2,,0.00,4,Rain,106
2012-6-5,73,60,46,51,46,39,93,64,31,30.10,30.07,30.01,10,10,10,14,3,18,0.00,2,,109
2012-6-6,79,60,42,48,43,39,93,58,26,30.14,30.10,30.04,10,10,10,7,1,,0.00,0,,283
2012-6-7,82,64,46,61,50,44,93,60,31,30.12,30.06,29.99,10,10,8,8,2,,0.01,2,,265
2012-6-8,80,67,55,65,60,54,100,76,54,29.99,29.88,29.75,10,9,1,14,3,24,0.01,4,Thunderstorm,256
2012-6-9,91,76,60,62,58,56,96,57,30,29.78,29.75,29.72,10,10,9,13,4,18,0.00,1,,224
2012-6-10,91,74,57,60,57,55,96,53,30,29.86,29.81,29.75,10,9,1,24,7,32,0.00,1,,178
2012-6-11,82,74,64,66,60,48,94,67,39,29.77,29.72,29.65,10,9,1,16,9,25,0.16,3,Rain-Thunderstorm,184
2012-6-12,64,54,43,49,40,33,86,57,34,30.17,29.99,29.78,10,10,10,20,11,28,0.00,4,,306
2012-6-13,73,56,39,48,44,37,96,59,35,30.21,30.15,30.09,10,10,10,16,5,21,0.00,0,,163
2012-6-14,66,58,50,57,50,42,86,68,48,30.14,30.08,29.89,10,10,10,16,7,24,0.00,2,Rain-Thunderstorm,151
2012-6-15,84,70,57,63,55,44,81,62,47,30.03,30.01,29.96,10,10,9,12,5,,0.00,2,Rain,151
2012-6-16,87,72,57,67,60,52,100,79,34,30.04,29.90,29.72,10,7,1,16,4,26,0.00,3,Rain,158
2012-6-17,81,69,57,59,52,47,90,57,30,29.79,29.74,29.68,10,10,10,16,8,24,0.00,1,,240
2012-6-18,75,68,60,70,64,53,100,90,57,29.70,29.60,29.52,10,7,1,13,7,30,0.35,6,Rain-Thunderstorm,155
2012-6-19,84,73,62,71,65,61,100,88,63,29.91,29.77,29.70,10,5,0,13,2,21,0.12,3,Fog-Rain-Thunderstorm,152
2012-6-20,91,78,66,70,67,63,100,76,46,29.82,29.78,29.68,10,9,5,23,8,38,0.06,4,Rain-Thunderstorm,196
2012-6-21,79,70,60,66,58,47,97,72,39,29.93,29.82,29.73,10,10,3,16,5,26,0.14,5,Rain,284
2012-6-22,77,62,50,58,53,45,100,74,33,30.01,29.98,29.93,10,9,2,15,3,29,0.05,3,Rain-Thunderstorm,85
2012-6-23,78,64,50,62,55,48,100,84,46,30.02,30.00,29.96,10,7,0,9,1,16,0.00,6,Fog-Rain,205
2012-6-24,75,64,51,63,55,39,100,69,36,30.13,30.01,29.94,10,9,2,14,7,18,0.01,4,Rain,352
2012-6-25,75,59,43,49,44,40,89,56,31,30.20,30.14,30.08,10,10,10,13,3,18,0.00,0,,360
2012-6-26,81,64,48,53,50,46,93,62,35,30.08,30.00,29.89,10,10,10,12,3,26,0.00,0,,191
2012-6-27,88,70,54,66,59,52,93,65,43,29.89,29.78,29.68,10,10,10,15,6,25,0.00,0,,154
2012-6-28,84,74,63,70,62,54,93,65,35,29.81,29.76,29.69,10,10,10,16,4,23,0.00,0,,309
2012-6-29,90,73,57,59,54,50,87,51,27,29.82,29.77,29.70,10,10,10,17,6,30,0.00,0,,281
2012-6-30,87,74,61,59,54,49,90,52,29,29.87,29.80,29.73,10,10,10,16,6,25,0.00,0,,307